{"data":{"norad_id":47800,"intl_designator":"2021-018P","name":"STARLINK-2381","alt_names":[],"object_type":"PAYLOAD","status":"ACTIVE","operator":null,"country":"US","launch_date":"2021-03-11","launch_site_code":"AFETR","launch_vehicle":null,"mission":null,"orbit_class":"UNKNOWN","rcs_meters":null,"size_class":null,"mass_kg":null,"dimensions":null,"purposes":["comms"],"wikipedia_slug":null,"has_3d_model":false,"image_url":null,"decayed_at":null,"tle_current":{"epoch":"2026-09-20T02:58:23.265696Z","epoch_age_seconds":58284,"freshness":"FRESH","line1":"1 47800U 21018P   26263.12388039  .00002881  00000+0  10455-3 0  9990","line2":"2 47800  53.1586  54.1959 0001173  83.8512 276.2623 15.31705745306556","mean_motion":15.31705745,"eccentricity":0.0001173,"inclination_deg":53.1586,"raan_deg":54.1959,"arg_perigee_deg":83.8512,"mean_anomaly_deg":276.2623,"bstar":0.00010455,"rev_number":30655,"period_min":94.012835343906,"perigee_km":469.9194984704,"apogee_km":471.52624099584,"semimajor_km":6848.8598697331,"source":"CELESTRAK","updated_at":"2026-09-20T09:00:38.746652Z"}}}